Theta_e
311 310 309 307 306 307 307 307 307 309 310 311 312 312 313 312 313 315 328 337 328 319 319 321 321 318 318 319 316 319 316 317 314 310 307 308 306 310 307 308 303 304 302 300 303 300 296 312 310 303 310 314 311 310
310 310 308 306 306 307 307 307 307 309 310 310 311 312 313 313 312 313 323 330 333 323 318 323 322 322 320 320 320 323 318 319 315 311 313 312 308 307 305 301 309 302 307 305 306 305 317 315 312 315 315 311 310 309
311 310 308 305 305 306 307 306 307 309 310 310 311 312 313 313 313 313 324 326 328 320 318 317 315 321 324 323 326 318 321 321 322 323 314 314 306 310 301 300 307 311 315 310 308 309 312 314 314 314 314 311 310 309
310 309 308 305 305 306 306 306 307 309 309 310 311 312 313 313 312 313 322 325 327 323 313 314 322 318 321 322 322 325 326 326 328 320 314 313 309 313 305 309 308 312 313 309 307 310 313 313 313 313 313 312 309 309
310 309 308 304 305 306 306 306 308 308 309 310 311 312 312 312 312 317 325 324 325 322 312 311 319 318 320 321 320 322 325 327 321 315 315 312 315 316 314 312 308 312 311 308 305 312 311 311 313 313 312 310 309 308
309 308 307 304 305 306 306 307 308 309 309 310 311 311 312 311 311 322 316 322 320 325 320 308 315 316 317 318 318 320 319 320 317 316 315 315 319 315 309 305 312 315 317 320 313 317 315 315 314 314 312 309 308 308
309 308 307 304 305 306 306 307 308 309 309 310 310 310 311 310 317 314 312 315 313 327 319 310 309 316 319 317 317 315 321 317 316 316 313 313 313 316 310 304 312 315 317 317 318 318 316 316 313 314 313 311 309 310
308 307 306 304 305 306 307 307 308 308 309 309 309 310 310 310 311 314 318 315 314 323 318 309 308 311 320 314 310 318 312 313 314 312 315 310 315 314 305 310 313 314 316 315 318 321 317 317 316 315 314 311 309 309
307 306 304 304 305 306 307 307 308 308 309 309 310 310 316 317 314 314 314 315 327 321 312 313 308 304 316 313 315 314 317 307 315 310 309 313 310 304 307 311 311 313 312 312 315 317 317 315 315 316 314 312 309 310
306 305 303 304 306 306 306 307 308 308 309 310 313 316 309 312 314 318 320 317 314 316 316 310 314 306 314 314 311 313 313 310 306 310 314 309 306 313 313 313 314 314 314 315 311 310 312 313 315 315 314 314 313 311
305 305 302 304 306 307 307 307 308 308 312 318 314 310 313 315 318 313 307 307 309 306 311 311 313 310 314 309 309 311 309 310 304 307 308 305 302 309 313 313 314 315 315 315 315 315 315 314 313 313 315 317 314 312
305 304 303 304 306 307 307 307 307 316 316 311 311 317 319 313 308 304 304 306 307 304 310 309 308 310 312 313 310 311 307 308 302 313 306 301 306 312 312 312 314 315 314 314 315 314 315 315 315 315 315 318 315 313
304 303 303 305 306 306 307 307 308 309 310 322 315 308 307 307 297 300 298 303 304 310 310 311 309 310 313 313 310 308 302 304 312 304 302 304 310 311 313 313 313 314 314 314 314 315 315 315 316 317 317 319 317 313
303 303 304 305 305 307 307 307 308 311 316 310 305 290 304 302 305 306 306 307 310 311 310 310 310 308 310 307 307 301 306 305 300 299 298 306 310 311 312 312 311 311 311 312 313 313 315 314 314 316 318 318 316 314
303 304 304 306 305 306 307 307 308 318 314 307 307 296 303 307 308 309 310 309 311 313 310 309 310 308 306 304 306 303 300 297 301 298 304 309 311 312 311 311 311 310 311 310 311 312 313 314 314 314 317 317 315 316
303 301 307 305 305 305 306 311 317 317 312 310 309 305 308 306 306 308 309 308 311 311 312 311 305 302 301 302 300 299 298 298 300 306 309 312 312 312 311 311 311 312 312 311 310 312 313 313 312 314 315 316 316 314
298 309 302 304 305 305 307 314 313 306 307 307 309 312 311 309 307 307 308 308 312 309 305 306 300 300 304 299 298 303 300 303 307 307 310 314 312 311 312 312 311 310 312 311 311 311 311 313 313 313 312 313 313 314
309 307 305 305 306 313 314 312 308 307 304 308 306 308 310 310 308 308 309 309 308 307 306 303 304 300 299 296 299 304 306 307 309 310 311 314 314 311 310 309 310 311 310 312 313 313 312 310 310 310 311 313 313 312
304 307 304 305 306 308 306 306 311 302 305 309 309 310 310 309 310 311 310 310 310 310 307 305 299 299 301 305 304 305 307 308 306 308 310 314 312 312 311 309 309 311 311 309 312 310 311 312 311 310 311 307 306 311
304 303 305 306 307 308 302 304 312 305 304 306 309 308 309 308 309 309 310 310 307 306 303 300 301 305 305 307 308 308 308 309 307 305 306 309 312 311 310 309 309 310 309 310 310 303 309 310 312 311 308 306 305 306
299 307 307 310 311 309 306 306 305 306 306 306 308 308 307 307 306 306 305 308 304 304 302 305 306 309 311 310 310 309 310 309 307 307 306 305 309 309 311 310 309 308 307 306 305 305 304 308 310 311 311 309 309 307
308 304 311 309 306 305 306 310 307 308 307 306 305 306 304 303 304 305 307 304 304 305 306 307 309 309 308 308 310 311 311 311 311 308 302 304 306 306 308 308 308 306 306 306 306 306 306 310 311 310 311 310 307 309
304 307 307 305 300 297 297 309 302 304 299 301 304 301 302 303 306 309 303 305 306 309 309 310 311 310 309 311 311 311 311 311 309 307 308 308 308 308 308 308 308 308 306 308 308 306 306 301 304 307 309 309 311 309
300 305 299 299 299 295 303 300 305 302 303 300 300 297 300 304 307 303 300 304 307 308 308 310 309 307 310 310 308 309 310 310 309 308 309 308 306 307 308 308 308 308 308 308 308 308 307 307 301 307 306 306 305 306
295 295 297 287 301 297 296 296 297 298 296 298 297 298 301 304 299 299 299 303 307 306 307 309 308 308 306 307 307 309 311 310 308 306 308 308 307 306 306 306 308 309 308 307 306 305 306 306 305 305 304 303 305 304
287 296 293 296 297 296 296 293 295 296 298 296 298 303 304 300 296 294 300 304 306 307 307 307 307 306 306 308 307 307 309 310 308 305 306 306 305 304 303 303 303 306 309 309 307 305 304 304 304 304 303 302 295 301
288 294 298 304 302 301 298 301 301 299 295 295 299 298 298 293 293 299 306 308 307 310 311 310 310 308 307 307 308 309 310 309 308 306 307 307 306 306 304 302 301 298 303 305 305 303 302 303 303 303 304 305 304 303
299 299 295 298 299 301 297 297 296 295 298 302 300 294 294 295 297 305 308 311 311 311 311 311 311 310 309 309 309 308 309 309 309 308 307 306 307 306 304 302 302 291 299 301 301 301 300 300 300 300 300 301 303 305
298 301 300 297 298 298 298 297 298 301 305 303 298 298 300 305 308 307 309 311 312 311 309 308 309 311 310 310 309 308 307 306 303 300 299 299 299 300 301 300 300 300 300 299 291 291 296 296 296 297 298 300 302 304
298 302 298 297 296 296 300 304 303 306 307 307 306 306 305 305 309 312 311 310 308 308 309 309 309 307 306 305 304 305 307 306 306 303 299 298 298 300 299 298 298 298 299 299 298 298 292 295 295 296 296 297 299 301
302 301 299 298 297 302 304 306 308 307 306 306 306 305 305 306 308 310 310 311 310 309 308 307 307 307 305 304 304 302 301 305 305 304 303 301 301 301 300 299 298 298 298 297 297 296 295 295 295 294 294 294 295 296
300 298 298 296 299 304 305 304 304 304 304 303 303 305 304 303 302 306 311 311 307 306 298 301 303 304 306 306 306 305 292 304 303 303 303 301 300 300 299 298 297 297 296 295 296 295 295 294 295 293 294 295 295 296
300 300 300 299 299 299 301 301 300 299 301 300 301 302 301 301 299 307 313 313 308 306 305 305 305 306 306 305 305 304 296 304 299 289 288 287 287 290 295 297 297 296 295 295 295 296 294 294 294 294 294 294 294 295
Wind_Speed
8 6 6 7 9 10 12 14 16 17 18 20 21 21 23 23 22 12 4 6 7 11 11 15 16 17 15 13 9 5 4 4 7 8 6 5 5 1 2 7 8 7 5 4 8 7 5 14 9 8 7 8 9 10
8 7 5 5 7 9 11 13 15 16 18 19 19 20 21 24 24 17 4 8 6 6 10 12 15 14 12 12 7 4 4 7 7 7 5 5 6 13 6 3 10 6 8 6 7 6 7 10 9 7 8 8 9 9
8 7 5 3 6 8 10 13 14 16 17 18 18 19 20 22 22 14 7 9 4 8 8 10 10 10 10 10 9 5 6 6 4 3 6 3 9 4 5 7 7 13 17 9 7 10 9 7 7 9 9 9 8 7
9 7 4 2 6 9 11 12 14 15 16 17 17 18 19 19 21 16 6 8 6 7 3 6 4 10 10 7 6 6 4 2 4 6 6 5 7 3 7 6 12 9 9 8 7 8 8 9 9 7 7 5 6 7
9 6 3 2 6 9 11 13 14 15 16 16 17 17 17 18 18 11 3 7 8 6 5 7 4 9 7 5 5 4 2 4 8 4 4 4 1 5 9 10 12 11 9 6 4 8 8 7 6 4 5 7 6 4
9 6 3 3 6 9 11 12 14 15 16 17 18 17 17 18 16 6 3 6 10 7 5 4 5 6 5 4 6 5 1 5 5 4 3 3 2 4 6 9 12 11 9 7 6 6 7 4 3 4 4 4 4 3
8 6 3 3 7 9 11 12 14 15 16 16 16 16 15 15 8 5 6 6 11 6 5 6 6 4 2 1 3 5 3 3 6 3 2 6 5 5 9 10 8 11 8 4 3 7 3 5 5 3 4 6 2 3
8 6 3 4 8 10 11 13 15 16 16 16 16 16 16 13 6 2 1 5 8 6 5 1 4 3 3 2 4 3 2 3 3 2 1 4 7 6 6 9 7 11 11 11 10 5 1 3 2 3 4 4 3 4
8 6 3 5 7 10 12 13 16 16 17 16 16 17 6 4 1 4 4 8 4 4 7 5 3 5 4 3 3 3 3 3 2 3 2 4 5 6 5 4 9 10 12 13 15 15 10 7 9 4 5 6 6 4
8 6 3 5 8 10 13 14 17 18 18 15 5 6 3 3 4 9 3 5 5 1 3 3 5 6 6 3 3 2 2 3 5 4 2 6 6 6 5 6 6 9 11 12 11 13 14 13 10 8 5 5 6 5
8 5 2 5 8 11 13 15 18 17 9 4 3 4 3 2 4 2 1 1 1 3 4 2 5 5 4 7 4 3 4 2 3 5 2 4 3 4 5 6 8 9 10 11 11 12 12 13 14 11 9 6 4 5
7 4 3 6 8 11 13 14 18 8 5 5 5 6 4 3 3 2 1 3 4 4 3 8 6 4 3 3 4 3 4 1 3 1 3 4 3 5 6 7 10 11 13 13 13 15 16 17 15 14 14 4 6 6
7 4 4 6 8 11 12 13 12 9 12 5 5 1 4 2 3 3 3 4 4 2 3 4 3 4 3 0 3 3 2 1 1 3 5 3 3 4 6 8 11 13 15 16 15 15 15 16 17 16 16 16 5 5
6 3 2 5 9 11 12 14 13 8 5 3 1 5 4 3 3 6 10 8 4 3 3 5 3 4 2 3 3 4 4 3 5 5 5 4 5 6 8 10 9 10 11 13 14 15 17 16 14 15 11 9 3 6
4 3 5 4 10 12 13 14 13 4 4 3 2 1 4 5 6 6 7 5 4 5 5 5 2 3 4 3 2 4 3 3 8 5 4 4 5 8 10 10 13 13 12 14 17 14 10 13 13 14 12 9 5 7
3 4 1 7 11 13 13 13 5 3 2 3 3 4 5 5 5 6 7 7 6 6 5 2 2 3 2 4 3 1 6 8 3 2 4 5 7 8 8 10 10 14 9 10 12 14 15 15 12 11 13 9 8 6
1 3 5 9 12 14 13 4 1 3 3 2 0 5 8 9 7 6 6 6 6 6 5 2 3 6 4 4 3 5 6 5 3 4 7 8 10 7 5 6 9 11 7 11 9 9 13 12 12 13 13 10 9 8
1 5 6 9 9 6 1 3 2 1 1 2 4 5 7 6 5 5 5 6 6 6 5 6 3 3 2 3 10 5 5 5 5 5 5 3 4 3 4 7 11 8 10 13 6 7 10 12 13 10 12 14 9 7
7 6 9 10 7 4 2 3 4 2 4 3 4 4 5 4 3 1 3 3 2 2 4 3 2 2 6 6 6 7 8 6 5 2 2 6 3 6 4 7 12 8 13 10 11 7 6 7 7 6 8 7 9 11
3 5 7 8 4 3 2 3 3 1 2 4 1 2 2 4 3 1 1 2 3 2 1 1 3 7 8 7 5 6 6 6 5 6 4 2 4 7 7 8 7 8 7 10 9 4 8 8 6 5 4 5 5 8
3 5 5 4 1 5 2 1 2 4 2 1 3 2 2 1 1 2 3 3 3 1 2 2 2 8 4 4 6 6 6 6 6 7 7 7 8 8 6 4 7 7 5 5 7 8 10 7 7 8 8 6 8 5
3 3 3 0 2 2 0 2 2 2 3 3 3 2 1 1 1 2 3 3 2 2 4 6 6 5 6 2 2 3 5 7 7 7 3 5 5 7 7 6 8 8 6 5 6 7 6 4 4 6 7 8 8 8
3 4 2 1 2 3 3 3 2 1 3 3 1 1 2 2 3 1 3 1 1 5 3 5 6 4 2 4 4 3 8 8 8 6 8 8 8 9 8 8 7 9 10 10 6 7 8 8 4 5 5 8 6 6
2 4 2 2 3 0 1 3 1 2 2 3 1 1 1 0 3 3 4 2 2 4 3 3 3 1 3 2 4 5 6 8 8 7 7 8 10 10 11 11 10 9 5 6 8 9 9 10 11 11 10 9 8 7
2 4 3 4 3 4 4 4 4 3 4 3 2 2 1 2 3 3 0 0 1 5 4 2 4 3 2 4 4 4 2 7 11 10 9 9 9 7 11 11 10 10 9 9 9 9 10 11 11 11 11 10 14 12
2 4 3 4 3 4 3 4 5 5 3 4 3 1 1 2 4 3 2 2 4 3 3 4 4 5 5 4 5 4 5 5 8 9 7 7 9 10 12 13 11 11 12 11 11 8 6 10 12 16 11 11 10 12
2 4 4 3 1 2 3 2 3 3 3 3 2 4 3 4 4 2 5 4 3 1 2 4 4 7 8 8 8 8 8 6 5 6 9 9 8 8 8 10 10 8 12 13 12 12 12 14 13 13 15 15 10 10
1 3 6 5 5 5 4 4 4 4 3 1 3 3 2 0 1 3 2 3 3 5 5 6 5 4 3 6 7 6 8 5 7 8 9 9 8 7 10 10 11 13 11 11 12 13 14 14 14 15 15 14 14 15
5 5 6 7 6 4 4 3 2 1 1 2 2 3 2 1 2 3 2 3 3 3 5 6 5 2 5 8 5 6 7 7 9 12 14 10 10 9 9 9 9 10 10 12 11 10 14 13 15 15 17 15 14 13
6 5 4 6 7 4 1 1 3 3 1 1 3 2 2 5 3 4 2 4 6 5 3 4 6 5 6 5 6 6 5 5 5 6 8 10 9 8 7 8 8 9 9 11 12 12 12 12 12 12 14 12 12 13
5 5 3 4 1 5 6 3 2 3 3 3 3 3 5 7 8 7 5 3 4 5 5 6 6 4 5 6 6 7 7 6 8 9 6 5 7 7 7 9 9 9 9 11 11 11 12 14 11 12 13 15 15 17
5 5 3 5 4 3 3 3 3 4 6 7 7 8 9 9 8 7 6 4 5 6 3 2 5 5 3 4 4 4 2 6 6 5 8 7 8 9 9 9 10 9 9 12 10 9 13 15 13 12 12 16 16 18
5 5 5 5 6 6 5 4 4 8 7 7 9 7 8 10 13 1 4 4 4 4 3 3 4 3 3 3 4 4 3 4 4 6 6 3 4 5 6 7 7 9 12 10 11 10 12 15 13 16 16 13 13 15
Wind_Direction
145 122 89 52 26 10 5 3 0 357 355 355 354 352 348 347 354 350 45 15 343 85 56 46 39 36 25 18 16 23 260 17 313 309 341 16 16 250 106 108 82 273 71 314 22 25 52 12 34 43 7 8 32 23
148 128 101 56 27 10 2 360 358 355 354 351 351 350 347 344 347 345 27 8 321 56 96 75 55 41 39 40 348 317 49 48 15 327 4 336 2 27 314 29 340 50 53 60 39 90 81 65 49 47 25 39 29 31
149 139 119 59 23 10 358 358 355 351 351 349 347 347 345 342 342 353 332 360 321 138 150 56 38 36 25 29 31 331 55 351 54 318 293 67 57 43 47 329 321 67 50 77 70 355 73 52 95 74 43 39 34 41
158 152 135 60 18 6 356 354 352 348 347 345 343 342 340 338 333 337 10 6 343 310 125 85 74 39 31 11 41 58 23 326 270 252 283 46 76 144 159 99 50 42 36 71 62 7 95 62 56 50 71 50 53 55
164 153 143 48 13 0 353 350 345 345 343 339 337 335 332 331 328 309 355 40 19 340 42 104 136 46 36 28 51 76 28 312 273 16 15 2 91 357 89 63 44 29 22 55 59 46 29 51 64 68 56 50 37 70
159 155 150 47 4 354 349 346 342 339 335 332 330 326 328 328 327 288 162 74 19 341 286 107 92 40 76 73 96 43 32 310 333 46 139 99 58 334 60 78 26 28 37 10 57 44 60 56 63 38 63 72 76 82
156 160 134 30 359 352 347 339 333 329 328 325 322 319 325 332 335 7 13 337 330 299 273 151 129 73 351 129 120 120 223 4 351 91 167 63 48 85 63 57 7 10 358 31 41 8 349 335 61 75 90 84 125 64
156 152 112 15 357 346 336 332 325 324 321 317 316 312 310 308 281 212 99 323 330 291 267 37 107 138 311 150 107 281 124 125 348 94 319 67 69 66 58 21 15 12 7 10 354 332 210 350 359 151 122 158 210 203
154 144 95 8 349 340 332 324 322 322 315 312 307 303 291 230 66 45 326 299 268 297 315 344 62 86 230 111 157 144 284 96 290 93 98 45 60 54 58 22 26 18 15 5 356 11 18 360 326 178 212 197 235 244
149 134 78 3 345 336 327 323 323 318 310 309 283 213 105 31 340 303 182 199 205 206 273 30 325 80 303 325 126 198 277 119 183 74 188 89 85 110 76 61 25 9 3 2 360 355 352 339 322 307 257 245 240 252
141 122 61 3 347 335 329 330 325 324 293 238 310 49 73 83 263 256 75 312 186 126 3 46 18 355 32 347 11 12 342 13 236 118 205 103 91 78 56 40 22 2 355 350 348 338 335 326 323 318 291 259 239 224
136 119 48 6 343 335 332 335 336 337 24 339 304 265 257 251 16 290 86 179 0 53 41 11 32 349 36 313 286 41 303 238 58 133 114 87 105 47 18 11 10 358 354 348 340 353 344 333 326 314 308 237 191 191
128 96 42 359 344 332 328 325 324 300 288 220 223 296 31 164 28 251 150 154 110 64 8 322 91 330 184 298 286 306 288 323 36 230 68 89 90 62 20 14 2 5 5 346 357 350 347 337 330 334 343 319 199 162
125 113 51 5 340 327 323 317 319 330 269 302 91 354 256 128 45 33 40 60 47 16 4 327 46 356 13 353 328 290 28 303 278 75 70 67 34 8 12 18 343 359 1 351 3 341 338 328 332 333 340 335 311 185
149 212 279 313 330 321 315 309 311 273 295 6 296 291 65 67 81 72 82 84 24 357 352 328 211 312 54 288 4 22 270 260 47 62 97 75 38 6 13 351 355 352 1 359 352 342 335 325 328 334 338 325 323 305
205 275 330 344 320 313 306 302 236 261 307 298 226 129 117 116 106 65 52 46 5 335 288 289 344 30 339 330 274 3 321 46 52 61 81 88 41 46 9 8 346 325 5 17 355 346 339 343 341 322 325 322 309 309
55 35 357 336 316 303 286 278 312 20 336 256 359 15 53 59 59 52 29 10 325 313 34 343 331 29 300 306 318 18 63 61 44 76 78 54 50 41 0 342 327 315 344 339 353 359 347 351 346 337 321 325 314 298
294 82 3 334 334 287 169 326 10 310 113 142 109 49 49 57 91 65 57 16 357 359 336 28 320 266 337 338 59 39 32 24 9 44 67 108 108 4 341 334 310 348 345 346 3 338 355 358 349 346 338 342 307 271
34 21 349 334 336 307 24 70 319 63 53 27 61 37 65 75 69 84 54 71 28 10 303 301 287 293 39 47 15 15 44 31 3 38 166 66 102 271 13 341 312 16 8 337 329 358 1 12 357 346 343 355 353 327
13 316 324 314 358 276 107 75 267 346 137 50 53 161 37 51 48 19 349 29 354 284 180 255 326 44 46 38 14 14 1 353 356 3 1 184 221 5 8 331 13 350 350 315 346 6 339 6 8 350 335 2 355 346
211 24 311 272 355 357 3 282 65 11 135 179 73 264 86 200 257 22 3 26 251 341 307 89 359 88 63 46 30 360 34 12 342 324 339 337 350 342 323 320 312 321 341 314 348 326 326 14 352 344 337 356 342 337
74 315 278 89 348 1 20 339 5 110 254 84 189 237 232 219 237 75 338 235 249 29 32 11 37 43 90 48 87 351 351 312 338 310 273 259 300 305 322 326 325 311 302 331 322 329 337 0 12 2 355 339 337 336
294 226 214 37 50 60 251 268 202 299 189 154 225 206 184 207 78 326 259 276 19 78 21 31 44 352 344 228 229 11 12 358 308 340 348 334 326 326 328 342 338 347 356 322 328 339 332 329 339 355 5 347 346 329
93 327 310 188 166 283 216 191 301 210 234 206 204 228 157 301 73 246 272 88 130 59 89 96 256 159 196 315 329 297 13 304 298 343 356 343 335 345 343 338 322 319 282 311 328 327 329 339 340 350 350 344 345 335
49 333 132 300 257 199 194 182 207 207 219 187 193 203 200 162 252 259 63 219 312 45 15 323 340 12 324 85 253 285 275 348 337 342 339 337 338 322 299 308 326 337 36 351 336 333 335 328 320 331 336 347 333 325
76 186 178 202 179 222 187 195 204 220 195 184 221 200 197 216 276 255 129 81 51 43 7 349 324 324 328 341 355 337 312 342 334 323 349 336 322 319 326 326 331 348 357 345 331 319 316 302 324 321 316 323 324 317
218 170 195 277 225 233 241 223 220 195 213 225 190 194 207 226 245 125 63 47 35 58 335 319 344 334 337 330 337 343 342 331 335 346 329 322 316 334 346 10 12 8 333 330 337 335 329 323 326 324 323 316 307 314
289 218 193 186 217 216 226 184 193 231 202 293 310 243 232 308 260 63 93 54 330 325 315 308 300 268 316 325 308 304 297 327 352 338 333 322 329 348 21 1 349 339 326 333 336 333 334 335 330 327 318 313 314 312
221 228 166 200 185 204 236 227 236 324 58 205 250 331 301 83 29 336 336 316 236 266 279 288 347 317 257 271 311 344 354 353 333 326 325 327 331 343 360 349 337 339 341 340 337 330 330 331 320 317 309 296 293 300
189 199 206 201 218 219 175 118 40 309 245 228 257 253 287 259 276 349 302 277 271 268 255 256 270 288 287 316 315 320 338 326 357 357 327 322 329 333 337 322 325 333 342 333 329 331 328 328 325 323 318 321 324 317
174 205 198 272 217 137 232 183 145 294 297 255 248 269 275 282 279 267 245 230 267 271 260 248 256 307 331 316 326 324 316 359 359 348 336 312 305 311 335 341 329 320 326 325 327 321 316 320 322 324 319 315 310 307
198 205 222 207 144 150 119 234 233 235 241 239 239 249 247 252 266 270 194 180 230 251 249 268 272 272 322 335 328 332 178 341 336 342 345 343 329 329 327 324 321 315 317 315 313 315 315 315 318 316 312 317 321 314
201 215 235 165 170 203 232 223 243 270 256 263 260 263 251 240 248 219 123 187 251 291 316 304 290 289 5 317 303 323 282 324 294 201 224 236 271 295 310 305 303 301 303 303 308 306 314 314 308 309 310 313 316 319